This demonstration page uses our WeatherBlox Daily Observations layout. Learn more.

36.17497, -115.13722

Hourly Observations for June 14, 2020

Temp ( °F °C ) Dew Point ( °F °C ) Humidity (%) Winds ( mph kmh ) Pressure ( in mb ) Visibility ( mi km ) Precip ( " mm )
12:53 am 00:53 Clear 77 25 30 -1.1 18 18 SSW 15 24 29.72 1007 10 16.0934 0 0
1:53 am 01:53 Clear 75 23.9 31 -0.6 20 20 WSW 5 7 29.73 1007 10 16.0934 0 0
2:53 am 02:53 Clear 72 22.2 31 -0.6 22 22 N 8 13 29.75 1008 10 16.0934 0 0
3:53 am 03:53 Clear 72 22.2 28 -2.2 19 19 NNW 10 17 29.77 1008 10 16.0934 0 0
4:53 am 04:53 Clear 73 22.8 27 -2.8 18 18 N 6 9 29.79 1009 10 16.0934 0 0
5:53 am 05:53 Sunny 73 22.8 29 -1.7 19 19 WNW 13 20 29.81 1010 10 16.0934 0 0
6:53 am 06:53 Sunny 76 24.4 29 -1.7 18 18 NNW 12 19 29.83 1010 10 16.0934 0 0
7:53 am 07:53 Sunny 79 26.1 26 -3.3 14 14 N 9 15 29.85 1011 10 16.0934 0 0
8:53 am 08:53 Sunny 82 27.8 25 -3.9 12 12 E 5 7 29.85 1011 10 16.0934 0 0
9:53 am 09:53 Sunny 84 28.9 27 -2.8 12 12 ENE 7 11 29.86 1011 10 16.0934 0 0
10:53 am 10:53 Sunny 86 30 29 -1.7 13 13 VRB 5 7 29.86 1011 10 16.0934 0 0
11:53 am 11:53 Sunny 88 31.1 29 -1.7 12 12 ESE 8 13 29.85 1011 10 16.0934 0 0
12:53 pm 12:53 Sunny 89 31.7 29 -1.7 11 11 SSE 7 11 29.84 1011 10 16.0934 0 0
1:53 pm 13:53 Sunny 92 33.3 28 -2.2 10 10 ENE 9 15 29.82 1010 10 16.0934 0 0
2:53 pm 14:53 Sunny 93 33.9 28 -2.2 10 10 S 9 15 29.81 1009 10 16.0934 0 0
3:53 pm 15:53 Sunny 94 34.4 27 -2.8 9 9 ESE 8 13 29.79 1009 10 16.0934 0 0
4:53 pm 16:53 Sunny 94 34.4 26 -3.3 9 9 E 7 11 29.77 1008 10 16.0934 0 0
5:53 pm 17:53 Sunny 95 35 27 -2.8 9 9 VRB 3 6 29.75 1008 10 16.0934 0 0
6:53 pm 18:53 Sunny 94 34.4 27 -2.8 9 9 SE 7 11 29.76 1008 10 16.0934 0 0
7:53 pm 19:53 Sunny 91 32.8 27 -2.8 10 10 ESE 8 13 29.76 1008 10 16.0934 0 0
8:53 pm 20:53 Clear 90 32.2 27 -2.8 10 10 ESE 7 11 29.78 1008 10 16.0934 0 0
9:53 pm 21:53 Clear 87 30.6 28 -2.2 12 12 Calm 29.8 1009 10 16.0934 0 0
10:53 pm 22:53 Clear 84 28.9 31 -0.6 15 15 WNW 5 7 29.81 1009 10 16.0934 0 0
11:53 pm 23:53 Clear 83 28.3 31 -0.6 15 15 N 7 11 29.8 1009 10 16.0934 0 0

Powered by AerisWeather